owner,sensor,date,latitude,longitude,vertical_datum,mass_concentration_of_oxygen_in_sea_water,qcFlag 
SCCF RECON,ioos:station:SCCF:53:1,2009-07-01T00:00:00Z,26.6493,-81.8810,2.2,6.0,1111122 
SCCF RECON,ioos:station:SCCF:53:1,2009-07-01T01:00:00Z,26.6493,-81.8810,2.237,6.35,1111122 
SCCF RECON,ioos:station:SCCF:53:1,2009-07-01T02:00:00Z,26.6493,-81.8810,2.26,6.07,1111122 
SCCF RECON,ioos:station:SCCF:53:1,2009-07-01T03:00:00Z,26.6493,-81.8810,2.29,6.44,1111122 
SCCF RECON,ioos:station:SCCF:53:1,2009-07-01T04:00:00Z,26.6493,-81.8810,2.3,5.61,1111122 
SCCF RECON,ioos:station:SCCF:53:1,2009-07-01T05:00:00Z,26.6493,-81.8810,2.281,5.32,1111122 
SCCF RECON,ioos:station:SCCF:53:1,2009-07-01T06:00:00Z,26.6493,-81.8810,2.301,5.1,1111122 
SCCF RECON,ioos:station:SCCF:53:1,2009-07-01T07:00:00Z,26.6493,-81.8810,2.284,5.13,1111122 
SCCF RECON,ioos:station:SCCF:53:1,2009-07-01T08:00:00Z,26.6493,-81.8810,2.248,5.51,1111122 
SCCF RECON,ioos:station:SCCF:53:1,2009-07-01T09:00:00Z,26.6493,-81.8810,2.238,5.37,1111122 
SCCF RECON,ioos:station:SCCF:53:1,2009-07-01T10:00:00Z,26.6493,-81.8810,2.27,5.46,1111122 
SCCF RECON,ioos:station:SCCF:53:1,2009-07-01T11:00:00Z,26.6493,-81.8810,2.322,4.92,1111122 
SCCF RECON,ioos:station:SCCF:53:1,2009-07-01T12:00:00Z,26.6493,-81.8810,2.37,5.61,1111122 
SCCF RECON,ioos:station:SCCF:53:1,2009-07-01T13:00:00Z,26.6493,-81.8810,2.429,5.41,1111122 
SCCF RECON,ioos:station:SCCF:53:1,2009-07-01T14:00:00Z,26.6493,-81.8810,2.479,5.68,1111122 
SCCF RECON,ioos:station:SCCF:53:1,2009-07-01T15:00:00Z,26.6493,-81.8810,2.524,5.8,1111122 
SCCF RECON,ioos:station:SCCF:53:1,2009-07-01T16:00:00Z,26.6493,-81.8810,2.605,5.93,1111122 
SCCF RECON,ioos:station:SCCF:53:1,2009-07-01T17:00:00Z,26.6493,-81.8810,2.583,6.2,1111122 
SCCF RECON,ioos:station:SCCF:53:1,2009-07-01T18:00:00Z,26.6493,-81.8810,2.485,6.05,1111122 
SCCF RECON,ioos:station:SCCF:53:1,2009-07-01T19:00:00Z,26.6493,-81.8810,2.43,6.02,1111122 
SCCF RECON,ioos:station:SCCF:53:1,2009-07-01T20:00:00Z,26.6493,-81.8810,2.371,5.96,1111122 
SCCF RECON,ioos:station:SCCF:53:1,2009-07-01T21:00:00Z,26.6493,-81.8810,2.319,5.95,1111122 
SCCF RECON,ioos:station:SCCF:53:1,2009-07-01T22:00:00Z,26.6493,-81.8810,2.231,5.93,1111122 
SCCF RECON,ioos:station:SCCF:53:1,2009-07-01T23:00:00Z,26.6493,-81.8810,2.244,5.77,1111122 
SCCF RECON,ioos:station:SCCF:53:1,2009-07-02T00:00:00Z,26.6493,-81.8810,2.23,5.68,1111122 
SCCF RECON,ioos:station:SCCF:53:1,2009-07-02T01:00:00Z,26.6493,-81.8810,2.21,5.68,1111122 
SCCF RECON,ioos:station:SCCF:53:1,2009-07-02T02:00:00Z,26.6493,-81.8810,2.23,5.66,1111122 
SCCF RECON,ioos:station:SCCF:53:1,2009-07-02T03:00:00Z,26.6493,-81.8810,2.22,5.64,1111122 
SCCF RECON,ioos:station:SCCF:53:1,2009-07-02T04:00:00Z,26.6493,-81.8810,2.22,5.63,1111122 
SCCF RECON,ioos:station:SCCF:53:1,2009-07-02T05:00:00Z,26.6493,-81.8810,2.23,5.68,1111122 
SCCF RECON,ioos:station:SCCF:53:1,2009-07-02T06:00:00Z,26.6493,-81.8810,2.26,5.45,1111122 
SCCF RECON,ioos:station:SCCF:53:1,2009-07-02T07:00:00Z,26.6493,-81.8810,2.305,5.46,1111122 
SCCF RECON,ioos:station:SCCF:53:1,2009-07-02T08:00:00Z,26.6493,-81.8810,2.35,5.52,1111122 
SCCF RECON,ioos:station:SCCF:53:1,2009-07-02T09:00:00Z,26.6493,-81.8810,2.37,5.37,1111122 
SCCF RECON,ioos:station:SCCF:53:1,2009-07-02T10:00:00Z,26.6493,-81.8810,2.364,5.22,1111122 
SCCF RECON,ioos:station:SCCF:53:1,2009-07-02T11:00:00Z,26.6493,-81.8810,2.39,5.65,1111122 
SCCF RECON,ioos:station:SCCF:53:1,2009-07-02T12:00:00Z,26.6493,-81.8810,2.41,5.7,1111122 
SCCF RECON,ioos:station:SCCF:53:1,2009-07-02T13:00:00Z,26.6493,-81.8810,2.45,5.23,1111122 
SCCF RECON,ioos:station:SCCF:53:1,2009-07-02T14:00:00Z,26.6493,-81.8810,2.51,5.42,1111122 
SCCF RECON,ioos:station:SCCF:53:1,2009-07-02T15:00:00Z,26.6493,-81.8810,2.557,5.5,1111122 
SCCF RECON,ioos:station:SCCF:53:1,2009-07-02T16:00:00Z,26.6493,-81.8810,2.581,5.49,1111122 
SCCF RECON,ioos:station:SCCF:53:1,2009-07-02T17:00:00Z,26.6493,-81.8810,2.57,5.46,1111122 
SCCF RECON,ioos:station:SCCF:53:1,2009-07-02T18:00:00Z,26.6493,-81.8810,2.531,6.37,1111122 
SCCF RECON,ioos:station:SCCF:53:1,2009-07-02T19:00:00Z,26.6493,-81.8810,2.502,6.24,1111122 
SCCF RECON,ioos:station:SCCF:53:1,2009-07-02T20:00:00Z,26.6493,-81.8810,2.444,5.66,1111122 
SCCF RECON,ioos:station:SCCF:53:1,2009-07-02T21:00:00Z,26.6493,-81.8810,2.376,5.71,1111122 
SCCF RECON,ioos:station:SCCF:53:1,2009-07-02T22:00:00Z,26.6493,-81.8810,2.33,5.56,1111122 
SCCF RECON,ioos:station:SCCF:53:1,2009-07-02T23:00:00Z,26.6493,-81.8810,2.281,5.67,1111122 
SCCF RECON,ioos:station:SCCF:53:1,2009-07-03T00:00:00Z,26.6493,-81.8810,2.24,5.7,1111122 
SCCF RECON,ioos:station:SCCF:53:1,2009-07-03T01:00:00Z,26.6493,-81.8810,2.201,5.58,1111122 
SCCF RECON,ioos:station:SCCF:53:1,2009-07-03T02:00:00Z,26.6493,-81.8810,2.19,5.58,1111122 
SCCF RECON,ioos:station:SCCF:53:1,2009-07-03T03:00:00Z,26.6493,-81.8810,2.17,5.39,1111122 
SCCF RECON,ioos:station:SCCF:53:1,2009-07-03T04:00:00Z,26.6493,-81.8810,2.18,5.48,1111122 
SCCF RECON,ioos:station:SCCF:53:1,2009-07-03T05:00:00Z,26.6493,-81.8810,2.215,5.45,1111122 
SCCF RECON,ioos:station:SCCF:53:1,2009-07-03T06:00:00Z,26.6493,-81.8810,2.26,5.42,1111122 
SCCF RECON,ioos:station:SCCF:53:1,2009-07-03T07:00:00Z,26.6493,-81.8810,2.29,5.1,1111122 
SCCF RECON,ioos:station:SCCF:53:1,2009-07-03T08:00:00Z,26.6493,-81.8810,2.31,5.44,1111122 
SCCF RECON,ioos:station:SCCF:53:1,2009-07-03T09:00:00Z,26.6493,-81.8810,2.32,5.26,1111122 
SCCF RECON,ioos:station:SCCF:53:1,2009-07-03T10:00:00Z,26.6493,-81.8810,2.29,5.05,1111122 
SCCF RECON,ioos:station:SCCF:53:1,2009-07-03T11:00:00Z,26.6493,-81.8810,2.27,5.15,1111122 
SCCF RECON,ioos:station:SCCF:53:1,2009-07-03T12:00:00Z,26.6493,-81.8810,2.33,5.07,1111122 
SCCF RECON,ioos:station:SCCF:53:1,2009-07-03T13:00:00Z,26.6493,-81.8810,2.41,4.68,1111122 
SCCF RECON,ioos:station:SCCF:53:1,2009-07-03T14:00:00Z,26.6493,-81.8810,2.465,4.89,1111122 
SCCF RECON,ioos:station:SCCF:53:1,2009-07-03T15:00:00Z,26.6493,-81.8810,2.511,4.82,1111122 
SCCF RECON,ioos:station:SCCF:53:1,2009-07-03T16:00:00Z,26.6493,-81.8810,2.545,4.81,1111122 
SCCF RECON,ioos:station:SCCF:53:1,2009-07-03T17:00:00Z,26.6493,-81.8810,2.543,4.82,1111122 
SCCF RECON,ioos:station:SCCF:53:1,2009-07-03T18:00:00Z,26.6493,-81.8810,2.502,4.76,1111122 
SCCF RECON,ioos:station:SCCF:53:1,2009-07-03T19:00:00Z,26.6493,-81.8810,2.449,4.82,1111122 
SCCF RECON,ioos:station:SCCF:53:1,2009-07-03T20:00:00Z,26.6493,-81.8810,2.401,4.61,1111122 
SCCF RECON,ioos:station:SCCF:53:1,2009-07-03T21:00:00Z,26.6493,-81.8810,2.353,4.7,1111122 
SCCF RECON,ioos:station:SCCF:53:1,2009-07-03T22:00:00Z,26.6493,-81.8810,2.303,4.86,1111122 
SCCF RECON,ioos:station:SCCF:53:1,2009-07-03T23:00:00Z,26.6493,-81.8810,2.254,4.73,1111122 
SCCF RECON,ioos:station:SCCF:53:1,2009-07-04T00:00:00Z,26.6493,-81.8810,2.209,4.71,1111122 
SCCF RECON,ioos:station:SCCF:53:1,2009-07-04T01:00:00Z,26.6493,-81.8810,2.167,4.77,1111122 
SCCF RECON,ioos:station:SCCF:53:1,2009-07-04T02:00:00Z,26.6493,-81.8810,2.14,4.7,1111122 
SCCF RECON,ioos:station:SCCF:53:1,2009-07-04T03:00:00Z,26.6493,-81.8810,2.134,4.64,1111122 
SCCF RECON,ioos:station:SCCF:53:1,2009-07-04T04:00:00Z,26.6493,-81.8810,2.15,4.6,1111122 
SCCF RECON,ioos:station:SCCF:53:1,2009-07-04T05:00:00Z,26.6493,-81.8810,2.192,4.52,1111122 
SCCF RECON,ioos:station:SCCF:53:1,2009-07-04T06:00:00Z,26.6493,-81.8810,2.25,4.58,1111122 
SCCF RECON,ioos:station:SCCF:53:1,2009-07-04T07:00:00Z,26.6493,-81.8810,2.29,4.52,1111122 
SCCF RECON,ioos:station:SCCF:53:1,2009-07-04T08:00:00Z,26.6493,-81.8810,2.31,4.59,1111122 
SCCF RECON,ioos:station:SCCF:53:1,2009-07-04T09:00:00Z,26.6493,-81.8810,2.32,4.54,1111122 
SCCF RECON,ioos:station:SCCF:53:1,2009-07-04T10:00:00Z,26.6493,-81.8810,2.3,4.58,1111122 
SCCF RECON,ioos:station:SCCF:53:1,2009-07-04T11:00:00Z,26.6493,-81.8810,2.29,4.56,1111122 
SCCF RECON,ioos:station:SCCF:53:1,2009-07-04T12:00:00Z,26.6493,-81.8810,2.286,4.38,1111122 
SCCF RECON,ioos:station:SCCF:53:1,2009-07-04T13:00:00Z,26.6493,-81.8810,2.329,4.34,1111122 
SCCF RECON,ioos:station:SCCF:53:1,2009-07-04T14:00:00Z,26.6493,-81.8810,2.38,4.26,1111122 
SCCF RECON,ioos:station:SCCF:53:1,2009-07-04T15:00:00Z,26.6493,-81.8810,2.435,4.14,1111122 
SCCF RECON,ioos:station:SCCF:53:1,2009-07-04T16:00:00Z,26.6493,-81.8810,2.49,4.14,1111122 
SCCF RECON,ioos:station:SCCF:53:1,2009-07-04T17:00:00Z,26.6493,-81.8810,2.531,3.88,1111122 
SCCF RECON,ioos:station:SCCF:53:1,2009-07-04T18:00:00Z,26.6493,-81.8810,2.539,3.98,1111122 
SCCF RECON,ioos:station:SCCF:53:1,2009-07-04T19:00:00Z,26.6493,-81.8810,2.505,4.23,1111122 
SCCF RECON,ioos:station:SCCF:53:1,2009-07-04T20:00:00Z,26.6493,-81.8810,2.438,4.12,1111122 
SCCF RECON,ioos:station:SCCF:53:1,2009-07-04T21:00:00Z,26.6493,-81.8810,2.381,4.85,1111122 
SCCF RECON,ioos:station:SCCF:53:1,2009-07-04T22:00:00Z,26.6493,-81.8810,2.322,5.0,1111122 
SCCF RECON,ioos:station:SCCF:53:1,2009-07-04T23:00:00Z,26.6493,-81.8810,2.268,5.35,1111122 
SCCF RECON,ioos:station:SCCF:53:1,2009-07-05T00:00:00Z,26.6493,-81.8810,2.222,4.91,1111122 
SCCF RECON,ioos:station:SCCF:53:1,2009-07-05T01:00:00Z,26.6493,-81.8810,2.17,4.79,1111122 
SCCF RECON,ioos:station:SCCF:53:1,2009-07-05T02:00:00Z,26.6493,-81.8810,2.12,4.27,1111122 
SCCF RECON,ioos:station:SCCF:53:1,2009-07-05T03:00:00Z,26.6493,-81.8810,2.1,4.28,1111122 
SCCF RECON,ioos:station:SCCF:53:1,2009-07-05T04:00:00Z,26.6493,-81.8810,2.106,4.23,1111122 
SCCF RECON,ioos:station:SCCF:53:1,2009-07-05T05:00:00Z,26.6493,-81.8810,2.15,4.18,1111122 
SCCF RECON,ioos:station:SCCF:53:1,2009-07-05T06:00:00Z,26.6493,-81.8810,2.2,4.3,1111122 
SCCF RECON,ioos:station:SCCF:53:1,2009-07-05T07:00:00Z,26.6493,-81.8810,2.25,4.19,1111122 
SCCF RECON,ioos:station:SCCF:53:1,2009-07-05T08:00:00Z,26.6493,-81.8810,2.28,4.27,1111122 
SCCF RECON,ioos:station:SCCF:53:1,2009-07-05T09:00:00Z,26.6493,-81.8810,2.3,4.31,1111122 
SCCF RECON,ioos:station:SCCF:53:1,2009-07-05T10:00:00Z,26.6493,-81.8810,2.31,4.23,1111122 
SCCF RECON,ioos:station:SCCF:53:1,2009-07-05T11:00:00Z,26.6493,-81.8810,2.31,4.24,1111122 
SCCF RECON,ioos:station:SCCF:53:1,2009-07-05T12:00:00Z,26.6493,-81.8810,2.3,4.12,1111122 
SCCF RECON,ioos:station:SCCF:53:1,2009-07-05T13:00:00Z,26.6493,-81.8810,2.308,3.98,1111122 
SCCF RECON,ioos:station:SCCF:53:1,2009-07-05T14:00:00Z,26.6493,-81.8810,2.346,3.88,1111122 
SCCF RECON,ioos:station:SCCF:53:1,2009-07-05T15:00:00Z,26.6493,-81.8810,2.431,4.06,1111122 
SCCF RECON,ioos:station:SCCF:53:1,2009-07-05T16:00:00Z,26.6493,-81.8810,2.504,4.2,1111122 
SCCF RECON,ioos:station:SCCF:53:1,2009-07-05T17:00:00Z,26.6493,-81.8810,2.554,4.3,1111122 
SCCF RECON,ioos:station:SCCF:53:1,2009-07-05T18:00:00Z,26.6493,-81.8810,2.599,4.38,1111122 
SCCF RECON,ioos:station:SCCF:53:1,2009-07-05T19:00:00Z,26.6493,-81.8810,2.584,3.88,1111122 
SCCF RECON,ioos:station:SCCF:53:1,2009-07-05T20:00:00Z,26.6493,-81.8810,2.521,4.3,1111122 
SCCF RECON,ioos:station:SCCF:53:1,2009-07-05T21:00:00Z,26.6493,-81.8810,2.456,4.19,1111122 
SCCF RECON,ioos:station:SCCF:53:1,2009-07-05T22:00:00Z,26.6493,-81.8810,2.395,4.21,1111122 
SCCF RECON,ioos:station:SCCF:53:1,2009-07-05T23:00:00Z,26.6493,-81.8810,2.341,4.44,1111122 
SCCF RECON,ioos:station:SCCF:53:1,2009-07-06T00:00:00Z,26.6493,-81.8810,2.293,4.43,1111122 
SCCF RECON,ioos:station:SCCF:53:1,2009-07-06T01:00:00Z,26.6493,-81.8810,2.243,4.26,1111122 
SCCF RECON,ioos:station:SCCF:53:1,2009-07-06T02:00:00Z,26.6493,-81.8810,2.2,4.21,1111122 
SCCF RECON,ioos:station:SCCF:53:1,2009-07-06T03:00:00Z,26.6493,-81.8810,2.16,4.02,1111122 
SCCF RECON,ioos:station:SCCF:53:1,2009-07-06T04:00:00Z,26.6493,-81.8810,2.15,3.93,1111122 
SCCF RECON,ioos:station:SCCF:53:1,2009-07-06T05:00:00Z,26.6493,-81.8810,2.17,3.95,1111122 
SCCF RECON,ioos:station:SCCF:53:1,2009-07-06T06:00:00Z,26.6493,-81.8810,2.23,3.98,1111122 
SCCF RECON,ioos:station:SCCF:53:1,2009-07-06T07:00:00Z,26.6493,-81.8810,2.28,3.92,1111122 
SCCF RECON,ioos:station:SCCF:53:1,2009-07-06T08:00:00Z,26.6493,-81.8810,2.33,4.07,1111122 
SCCF RECON,ioos:station:SCCF:53:1,2009-07-06T09:00:00Z,26.6493,-81.8810,2.36,4.05,1111122 
SCCF RECON,ioos:station:SCCF:53:1,2009-07-06T10:00:00Z,26.6493,-81.8810,2.38,4.1,1111122 
SCCF RECON,ioos:station:SCCF:53:1,2009-07-06T11:00:00Z,26.6493,-81.8810,2.38,4.04,1111122 
SCCF RECON,ioos:station:SCCF:53:1,2009-07-06T12:00:00Z,26.6493,-81.8810,2.361,4.01,1111122 
SCCF RECON,ioos:station:SCCF:53:1,2009-07-06T13:00:00Z,26.6493,-81.8810,2.34,4.0,1111122 
SCCF RECON,ioos:station:SCCF:53:1,2009-07-06T14:00:00Z,26.6493,-81.8810,2.349,3.95,1111122 
SCCF RECON,ioos:station:SCCF:53:1,2009-07-06T15:00:00Z,26.6493,-81.8810,2.399,4.05,1111122 
SCCF RECON,ioos:station:SCCF:53:1,2009-07-06T16:00:00Z,26.6493,-81.8810,2.476,4.33,1111122 
SCCF RECON,ioos:station:SCCF:53:1,2009-07-06T17:00:00Z,26.6493,-81.8810,2.53,4.75,1111122 
SCCF RECON,ioos:station:SCCF:53:1,2009-07-06T18:00:00Z,26.6493,-81.8810,2.586,4.68,1111122 
SCCF RECON,ioos:station:SCCF:53:1,2009-07-06T19:00:00Z,26.6493,-81.8810,2.611,4.64,1111122 
SCCF RECON,ioos:station:SCCF:53:1,2009-07-06T20:00:00Z,26.6493,-81.8810,2.584,4.88,1111122 
SCCF RECON,ioos:station:SCCF:53:1,2009-07-06T21:00:00Z,26.6493,-81.8810,2.527,5.06,1111122 
SCCF RECON,ioos:station:SCCF:53:1,2009-07-06T22:00:00Z,26.6493,-81.8810,2.469,4.85,1111122 
SCCF RECON,ioos:station:SCCF:53:1,2009-07-06T23:00:00Z,26.6493,-81.8810,2.409,4.42,1111122 
SCCF RECON,ioos:station:SCCF:53:1,2009-07-07T00:00:00Z,26.6493,-81.8810,2.351,4.54,1111122 
SCCF RECON,ioos:station:SCCF:53:1,2009-07-07T01:00:00Z,26.6493,-81.8810,2.29,4.33,1111122 
SCCF RECON,ioos:station:SCCF:53:1,2009-07-07T02:00:00Z,26.6493,-81.8810,2.24,4.21,1111122 
SCCF RECON,ioos:station:SCCF:53:1,2009-07-07T03:00:00Z,26.6493,-81.8810,2.19,4.21,1111122 
SCCF RECON,ioos:station:SCCF:53:1,2009-07-07T04:00:00Z,26.6493,-81.8810,2.15,4.26,1111122 
SCCF RECON,ioos:station:SCCF:53:1,2009-07-07T05:00:00Z,26.6493,-81.8810,2.15,4.28,1111122 
SCCF RECON,ioos:station:SCCF:53:1,2009-07-07T06:00:00Z,26.6493,-81.8810,2.18,4.24,1111122 
SCCF RECON,ioos:station:SCCF:53:1,2009-07-07T07:00:00Z,26.6493,-81.8810,2.235,4.38,1111122 
SCCF RECON,ioos:station:SCCF:53:1,2009-07-07T08:00:00Z,26.6493,-81.8810,2.282,4.44,1111122 
SCCF RECON,ioos:station:SCCF:53:1,2009-07-07T09:00:00Z,26.6493,-81.8810,2.33,4.44,1111122 
SCCF RECON,ioos:station:SCCF:53:1,2009-07-07T10:00:00Z,26.6493,-81.8810,2.356,4.43,1111122 
SCCF RECON,ioos:station:SCCF:53:1,2009-07-07T11:00:00Z,26.6493,-81.8810,2.38,4.47,1111122 
SCCF RECON,ioos:station:SCCF:53:1,2009-07-07T12:00:00Z,26.6493,-81.8810,2.39,4.73,1111122 
SCCF RECON,ioos:station:SCCF:53:1,2009-07-07T13:00:00Z,26.6493,-81.8810,2.387,4.76,1111122 
SCCF RECON,ioos:station:SCCF:53:1,2009-07-07T14:00:00Z,26.6493,-81.8810,2.385,4.79,1111122 
SCCF RECON,ioos:station:SCCF:53:1,2009-07-07T15:00:00Z,26.6493,-81.8810,2.422,4.99,1111122 
SCCF RECON,ioos:station:SCCF:53:1,2009-07-07T16:00:00Z,26.6493,-81.8810,2.474,5.77,1111122 
SCCF RECON,ioos:station:SCCF:53:1,2009-07-07T17:00:00Z,26.6493,-81.8810,2.533,5.06,1111122 
SCCF RECON,ioos:station:SCCF:53:1,2009-07-07T18:00:00Z,26.6493,-81.8810,2.587,5.04,1111122 
SCCF RECON,ioos:station:SCCF:53:1,2009-07-07T19:00:00Z,26.6493,-81.8810,2.626,4.95,1111122 
SCCF RECON,ioos:station:SCCF:53:1,2009-07-07T20:00:00Z,26.6493,-81.8810,2.631,5.04,1111122 
SCCF RECON,ioos:station:SCCF:53:1,2009-07-07T21:00:00Z,26.6493,-81.8810,2.59,5.06,1111122 
SCCF RECON,ioos:station:SCCF:53:1,2009-07-07T22:00:00Z,26.6493,-81.8810,2.52,5.4,1111122 
SCCF RECON,ioos:station:SCCF:53:1,2009-07-07T23:00:00Z,26.6493,-81.8810,2.462,5.56,1111122 
SCCF RECON,ioos:station:SCCF:53:1,2009-07-08T00:00:00Z,26.6493,-81.8810,2.405,5.05,1111122 
SCCF RECON,ioos:station:SCCF:53:1,2009-07-08T01:00:00Z,26.6493,-81.8810,2.346,4.7,1111122 
SCCF RECON,ioos:station:SCCF:53:1,2009-07-08T02:00:00Z,26.6493,-81.8810,2.285,4.74,1111122 
SCCF RECON,ioos:station:SCCF:53:1,2009-07-08T03:00:00Z,26.6493,-81.8810,2.23,4.71,1111122 
SCCF RECON,ioos:station:SCCF:53:1,2009-07-08T04:00:00Z,26.6493,-81.8810,2.18,4.66,1111122 
SCCF RECON,ioos:station:SCCF:53:1,2009-07-08T05:00:00Z,26.6493,-81.8810,2.14,4.64,1111122 
SCCF RECON,ioos:station:SCCF:53:1,2009-07-08T06:00:00Z,26.6493,-81.8810,2.13,4.6,1111122 
SCCF RECON,ioos:station:SCCF:53:1,2009-07-08T07:00:00Z,26.6493,-81.8810,2.2,4.62,1111122 
SCCF RECON,ioos:station:SCCF:53:1,2009-07-08T08:00:00Z,26.6493,-81.8810,2.25,4.72,1111122 
SCCF RECON,ioos:station:SCCF:53:1,2009-07-08T09:00:00Z,26.6493,-81.8810,2.29,4.7,1111122 
SCCF RECON,ioos:station:SCCF:53:1,2009-07-08T10:00:00Z,26.6493,-81.8810,2.33,4.75,1111122 
SCCF RECON,ioos:station:SCCF:53:1,2009-07-08T11:00:00Z,26.6493,-81.8810,2.34,4.78,1111122 
SCCF RECON,ioos:station:SCCF:53:1,2009-07-08T12:00:00Z,26.6493,-81.8810,2.33,4.8,1111122 
SCCF RECON,ioos:station:SCCF:53:1,2009-07-08T13:00:00Z,26.6493,-81.8810,2.311,4.88,1111122 
SCCF RECON,ioos:station:SCCF:53:1,2009-07-08T14:00:00Z,26.6493,-81.8810,2.293,4.91,1111122 
SCCF RECON,ioos:station:SCCF:53:1,2009-07-08T15:00:00Z,26.6493,-81.8810,2.321,4.95,1111122 
SCCF RECON,ioos:station:SCCF:53:1,2009-07-08T16:00:00Z,26.6493,-81.8810,2.383,5.03,1111122 
SCCF RECON,ioos:station:SCCF:53:1,2009-07-08T17:00:00Z,26.6493,-81.8810,2.447,5.08,1111122 
SCCF RECON,ioos:station:SCCF:53:1,2009-07-08T18:00:00Z,26.6493,-81.8810,2.507,5.33,1111122 
SCCF RECON,ioos:station:SCCF:53:1,2009-07-08T19:00:00Z,26.6493,-81.8810,2.569,5.16,1111122 
SCCF RECON,ioos:station:SCCF:53:1,2009-07-08T20:00:00Z,26.6493,-81.8810,2.61,5.2,1111122 
SCCF RECON,ioos:station:SCCF:53:1,2009-07-08T21:00:00Z,26.6493,-81.8810,2.61,5.28,1111122 
SCCF RECON,ioos:station:SCCF:53:1,2009-07-08T22:00:00Z,26.6493,-81.8810,2.559,5.32,1111122 
SCCF RECON,ioos:station:SCCF:53:1,2009-07-08T23:00:00Z,26.6493,-81.8810,2.503,5.5,1111122 
SCCF RECON,ioos:station:SCCF:53:1,2009-07-09T00:00:00Z,26.6493,-81.8810,2.444,5.52,1111122 
SCCF RECON,ioos:station:SCCF:53:1,2009-07-09T01:00:00Z,26.6493,-81.8810,2.388,5.15,1111122 
SCCF RECON,ioos:station:SCCF:53:1,2009-07-09T02:00:00Z,26.6493,-81.8810,2.328,4.96,1111122 
SCCF RECON,ioos:station:SCCF:53:1,2009-07-09T03:00:00Z,26.6493,-81.8810,2.27,4.91,1111122 
SCCF RECON,ioos:station:SCCF:53:1,2009-07-09T04:00:00Z,26.6493,-81.8810,2.21,4.83,1111122 
SCCF RECON,ioos:station:SCCF:53:1,2009-07-09T05:00:00Z,26.6493,-81.8810,2.16,4.82,1111122 
SCCF RECON,ioos:station:SCCF:53:1,2009-07-09T06:00:00Z,26.6493,-81.8810,2.15,4.62,1111122 
SCCF RECON,ioos:station:SCCF:53:1,2009-07-09T07:00:00Z,26.6493,-81.8810,2.18,4.63,1111122 
SCCF RECON,ioos:station:SCCF:53:1,2009-07-09T08:00:00Z,26.6493,-81.8810,2.238,4.67,1111122 
SCCF RECON,ioos:station:SCCF:53:1,2009-07-09T09:00:00Z,26.6493,-81.8810,2.27,4.69,1111122 
SCCF RECON,ioos:station:SCCF:53:1,2009-07-09T10:00:00Z,26.6493,-81.8810,2.31,4.63,1111122 
SCCF RECON,ioos:station:SCCF:53:1,2009-07-09T11:00:00Z,26.6493,-81.8810,2.3,4.65,1111122 
SCCF RECON,ioos:station:SCCF:53:1,2009-07-09T12:00:00Z,26.6493,-81.8810,2.28,4.68,1111122 
SCCF RECON,ioos:station:SCCF:53:1,2009-07-09T13:00:00Z,26.6493,-81.8810,2.26,4.59,1111122 
SCCF RECON,ioos:station:SCCF:53:1,2009-07-09T14:00:00Z,26.6493,-81.8810,2.23,4.56,1111122 
SCCF RECON,ioos:station:SCCF:53:1,2009-07-09T15:00:00Z,26.6493,-81.8810,2.227,4.46,1111122 
SCCF RECON,ioos:station:SCCF:53:1,2009-07-09T16:00:00Z,26.6493,-81.8810,2.268,4.63,1111122 
SCCF RECON,ioos:station:SCCF:53:1,2009-07-09T17:00:00Z,26.6493,-81.8810,2.336,4.69,1111122 
SCCF RECON,ioos:station:SCCF:53:1,2009-07-09T18:00:00Z,26.6493,-81.8810,2.398,4.75,1111122 
SCCF RECON,ioos:station:SCCF:53:1,2009-07-09T19:00:00Z,26.6493,-81.8810,2.462,4.8,1111122 
SCCF RECON,ioos:station:SCCF:53:1,2009-07-09T20:00:00Z,26.6493,-81.8810,2.514,4.85,1111122 
SCCF RECON,ioos:station:SCCF:53:1,2009-07-09T21:00:00Z,26.6493,-81.8810,2.55,4.92,1111122 
SCCF RECON,ioos:station:SCCF:53:1,2009-07-09T22:00:00Z,26.6493,-81.8810,2.542,4.95,1111122 
SCCF RECON,ioos:station:SCCF:53:1,2009-07-09T23:00:00Z,26.6493,-81.8810,2.49,5.04,1111122 
SCCF RECON,ioos:station:SCCF:53:1,2009-07-10T00:00:00Z,26.6493,-81.8810,2.43,4.92,1111122 
SCCF RECON,ioos:station:SCCF:53:1,2009-07-10T01:00:00Z,26.6493,-81.8810,2.369,4.82,1111122 
SCCF RECON,ioos:station:SCCF:53:1,2009-07-10T02:00:00Z,26.6493,-81.8810,2.31,4.76,1111122 
SCCF RECON,ioos:station:SCCF:53:1,2009-07-10T03:00:00Z,26.6493,-81.8810,2.25,4.81,1111122 
SCCF RECON,ioos:station:SCCF:53:1,2009-07-10T04:00:00Z,26.6493,-81.8810,2.19,4.75,1111122 
SCCF RECON,ioos:station:SCCF:53:1,2009-07-10T05:00:00Z,26.6493,-81.8810,2.14,4.65,1111122 
SCCF RECON,ioos:station:SCCF:53:1,2009-07-10T06:00:00Z,26.6493,-81.8810,2.12,4.57,1111122 
SCCF RECON,ioos:station:SCCF:53:1,2009-07-10T07:00:00Z,26.6493,-81.8810,2.15,4.54,1111122 
SCCF RECON,ioos:station:SCCF:53:1,2009-07-10T08:00:00Z,26.6493,-81.8810,2.19,4.58,1111122 
SCCF RECON,ioos:station:SCCF:53:1,2009-07-10T09:00:00Z,26.6493,-81.8810,2.23,4.67,1111122 
SCCF RECON,ioos:station:SCCF:53:1,2009-07-10T10:00:00Z,26.6493,-81.8810,2.29,4.61,1111122 
SCCF RECON,ioos:station:SCCF:53:1,2009-07-10T11:00:00Z,26.6493,-81.8810,2.32,4.59,1111122 
SCCF RECON,ioos:station:SCCF:53:1,2009-07-10T12:00:00Z,26.6493,-81.8810,2.31,4.6,1111122 
SCCF RECON,ioos:station:SCCF:53:1,2009-07-10T13:00:00Z,26.6493,-81.8810,2.258,4.66,1111122 
SCCF RECON,ioos:station:SCCF:53:1,2009-07-10T14:00:00Z,26.6493,-81.8810,2.22,4.55,1111122 
SCCF RECON,ioos:station:SCCF:53:1,2009-07-10T15:00:00Z,26.6493,-81.8810,2.2,4.47,1111122 
SCCF RECON,ioos:station:SCCF:53:1,2009-07-10T16:00:00Z,26.6493,-81.8810,2.19,4.44,1111122 
SCCF RECON,ioos:station:SCCF:53:1,2009-07-10T17:00:00Z,26.6493,-81.8810,2.225,4.45,1111122 
SCCF RECON,ioos:station:SCCF:53:1,2009-07-10T18:00:00Z,26.6493,-81.8810,2.291,4.6,1111122 
SCCF RECON,ioos:station:SCCF:53:1,2009-07-10T19:00:00Z,26.6493,-81.8810,2.35,4.66,1111122 
SCCF RECON,ioos:station:SCCF:53:1,2009-07-10T20:00:00Z,26.6493,-81.8810,2.409,5.03,1111122 
SCCF RECON,ioos:station:SCCF:53:1,2009-07-10T21:00:00Z,26.6493,-81.8810,2.45,4.86,1111122 
SCCF RECON,ioos:station:SCCF:53:1,2009-07-10T22:00:00Z,26.6493,-81.8810,2.48,4.82,1111122 
SCCF RECON,ioos:station:SCCF:53:1,2009-07-10T23:00:00Z,26.6493,-81.8810,2.46,4.92,1111122 
SCCF RECON,ioos:station:SCCF:53:1,2009-07-11T00:00:00Z,26.6493,-81.8810,2.402,4.93,1111122 
SCCF RECON,ioos:station:SCCF:53:1,2009-07-11T01:00:00Z,26.6493,-81.8810,2.35,4.85,1111122 
SCCF RECON,ioos:station:SCCF:53:1,2009-07-11T02:00:00Z,26.6493,-81.8810,2.29,4.65,1111122 
SCCF RECON,ioos:station:SCCF:53:1,2009-07-11T03:00:00Z,26.6493,-81.8810,2.24,4.59,1111122 
SCCF RECON,ioos:station:SCCF:53:1,2009-07-11T04:00:00Z,26.6493,-81.8810,2.173,4.73,1111122 
SCCF RECON,ioos:station:SCCF:53:1,2009-07-11T05:00:00Z,26.6493,-81.8810,2.12,4.63,1111122 
SCCF RECON,ioos:station:SCCF:53:1,2009-07-11T06:00:00Z,26.6493,-81.8810,2.09,4.7,1111122 
SCCF RECON,ioos:station:SCCF:53:1,2009-07-11T07:00:00Z,26.6493,-81.8810,2.12,4.59,1111122 
SCCF RECON,ioos:station:SCCF:53:1,2009-07-11T08:00:00Z,26.6493,-81.8810,2.17,4.68,1111122 
SCCF RECON,ioos:station:SCCF:53:1,2009-07-11T09:00:00Z,26.6493,-81.8810,2.211,4.58,1111122 
SCCF RECON,ioos:station:SCCF:53:1,2009-07-11T10:00:00Z,26.6493,-81.8810,2.26,4.62,1111122 
SCCF RECON,ioos:station:SCCF:53:1,2009-07-11T11:00:00Z,26.6493,-81.8810,2.31,4.58,1111122 
SCCF RECON,ioos:station:SCCF:53:1,2009-07-11T12:00:00Z,26.6493,-81.8810,2.33,4.68,1111122 
SCCF RECON,ioos:station:SCCF:53:1,2009-07-11T13:00:00Z,26.6493,-81.8810,2.31,4.62,1111122 
SCCF RECON,ioos:station:SCCF:53:1,2009-07-11T14:00:00Z,26.6493,-81.8810,2.25,4.55,1111122 
SCCF RECON,ioos:station:SCCF:53:1,2009-07-11T15:00:00Z,26.6493,-81.8810,2.208,4.56,1111122 
SCCF RECON,ioos:station:SCCF:53:1,2009-07-11T16:00:00Z,26.6493,-81.8810,2.17,4.5,1111122 
SCCF RECON,ioos:station:SCCF:53:1,2009-07-11T17:00:00Z,26.6493,-81.8810,2.174,4.43,1111122 
SCCF RECON,ioos:station:SCCF:53:1,2009-07-11T18:00:00Z,26.6493,-81.8810,2.24,4.43,1111122 
SCCF RECON,ioos:station:SCCF:53:1,2009-07-11T19:00:00Z,26.6493,-81.8810,2.293,4.6,1111122 
SCCF RECON,ioos:station:SCCF:53:1,2009-07-11T20:00:00Z,26.6493,-81.8810,2.349,4.69,1111122 